EW4538 Weather Reports


Display with metric or nautical units.
time (UTC)temp
F
wind
direction
speed
MPH
gust
MPH
rain 1hr
in
rain 24hr
in
rain mn
in
humidity
%
barometer
mb
20190324170311 72 185 0.0 0.0 0.00 0.00 0.00 78 1018.9
20190324165810 72 215 0.0 14.0 0.00 0.00 0.00 78 1019.0
20190324165311 71 198 0.0 14.0 0.00 0.00 0.00 79 1019.1
20190324164811 71 210 1.0 12.0 0.00 0.00 0.00 79 1019.1
20190324164311 71 187 2.0 8.0 0.00 0.00 0.00 78 1019.1
20190324163811 71 207 0.0 7.0 0.00 0.00 0.00 79 1019.1
20190324163311 71 202 0.0 7.0 0.00 0.00 0.00 80 1019.2
20190324162810 71 158 0.0 1.0 0.00 0.00 0.00 81 1019.2
20190324162310 70 213 0.0 1.0 0.00 0.00 0.00 81 1019.2
20190324161811 70 195 0.0 0.0 0.00 0.00 0.00 81 1019.2
20190324161311 70 194 0.0 2.0 0.00 0.00 0.00 80 1019.1
20190324160811 70 179 0.0 2.0 0.00 0.00 0.00 82 1019.1
20190324160310 70 202 0.0 7.0 0.00 0.00 0.00 83 1019.2
20190324155811 69 189 0.0 7.0 0.00 0.00 0.00 83 1019.2
20190324155310 69 182 0.0 7.0 0.00 0.00 0.00 83 1019.3
20190324154811 69 190 0.0 6.0 0.00 0.00 0.00 84 1019.3
20190324154311 69 196 0.0 1.0 0.00 0.00 0.00 84 1019.3
20190324153811 69 193 0.0 8.0 0.00 0.00 0.00 85 1019.3
20190324153311 69 215 0.0 8.0 0.00 0.00 0.00 85 1019.3
20190324152811 69 199 0.0 0.0 0.00 0.00 0.00 86 1019.3
20190324152311 68 188 0.0 7.0 0.00 0.00 0.00 86 1019.3
20190324151811 68 186 0.0 7.0 0.00 0.00 0.00 86 1019.2
20190324151311 68 191 1.0 7.0 0.00 0.00 0.00 86 1019.2
20190324150811 68 195 0.0 0.0 0.00 0.00 0.00 86 1019.3
20190324150311 68 194 0.0 0.0 0.00 0.00 0.00 86 1019.3
20190324145810 68 203 0.0 1.0 0.00 0.00 0.00 86 1019.3
20190324145311 68 203 0.0 6.0 0.00 0.00 0.00 87 1019.3
20190324144811 67 199 0.0 6.0 0.00 0.00 0.00 87 1019.3
20190324144310 67 195 0.0 6.0 0.00 0.00 0.00 88 1019.3
20190324143811 67 209 1.0 6.0 0.00 0.00 0.00 89 1019.3
20190324143310 67 178 0.0 0.0 0.00 0.00 0.00 89 1019.3
20190324142810 67 229 0.0 0.0 0.00 0.00 0.00 90 1019.3
20190324142310 67 201 0.0 0.0 0.00 0.00 0.00 90 1019.3
20190324141811 67 181 0.0 0.0 0.00 0.00 0.00 90 1019.2
20190324141310 66 181 0.0 0.0 0.00 0.00 0.00 91 1019.1
20190324140810 66 181 0.0 0.0 0.00 0.00 0.00 91 1019.1
20190324140310 66 184 0.0 0.0 0.00 0.00 0.00 91 1019.0
20190324135810 66 199 0.0 0.0 0.00 0.00 0.00 91 1018.9
20190324135311 66 184 0.0 0.0 0.00 0.00 0.00 91 1018.9
20190324134810 66 178 0.0 0.0 0.00 0.00 0.00 91 1018.9
20190324134311 66 190 0.0 0.0 0.00 0.00 0.00 91 1018.8
20190324133811 66 188 0.0 0.0 0.00 0.00 0.00 91 1018.8
20190324133311 66 189 0.0 0.0 0.00 0.00 0.00 91 1018.7
20190324132811 66 189 0.0 0.0 0.00 0.00 0.00 91 1018.8
20190324132310 66 183 0.0 0.0 0.00 0.00 0.00 91 1018.7
20190324131811 66 169 0.0 0.0 0.00 0.00 0.00 91 1018.7
20190324131310 66 182 0.0 0.0 0.00 0.00 0.00 91 1018.7
20190324130811 66 196 0.0 0.0 0.00 0.00 0.00 91 1018.6
20190324130310 66 196 0.0 0.0 0.00 0.00 0.00 91 1018.5
20190324125811 66 196 0.0 0.0 0.00 0.00 0.00 91 1018.4
20190324125310 66 196 0.0 0.0 0.00 0.00 0.00 91 1018.4
20190324124811 66 196 0.0 0.0 0.00 0.00 0.00 91 1018.3
20190324124311 66 196 0.0 0.0 0.00 0.00 0.00 91 1018.2
20190324123811 66 196 0.0 0.0 0.00 0.00 0.00 91 1018.2
20190324123311 66 196 0.0 0.0 0.00 0.00 0.00 91 1018.1
20190324122810 66 197 0.0 0.0 0.00 0.00 0.00 91 1018.1
20190324122310 66 198 0.0 0.0 0.00 0.00 0.00 91 1018.1
20190324121811 66 184 0.0 0.0 0.00 0.00 0.00 91 1018.1
20190324121311 66 184 0.0 0.0 0.00 0.00 0.00 91 1018.1
20190324120810 66 186 0.0 0.0 0.00 0.00 0.00 91 1018.1
20190324120311 66 194 0.0 0.0 0.00 0.00 0.00 91 1018.0
20190324115810 65 194 0.0 0.0 0.00 0.00 0.00 91 1018.0
20190324115311 65 195 0.0 0.0 0.00 0.00 0.00 91 1017.9
20190324114811 65 195 0.0 0.0 0.00 0.00 0.00 91 1017.9
20190324114310 65 234 0.0 0.0 0.00 0.00 0.00 91 1018.0
20190324113810 65 177 0.0 0.0 0.00 0.00 0.00 91 1017.9
20190324113310 65 186 0.0 0.0 0.00 0.00 0.00 91 1017.9
20190324112811 65 221 0.0 0.0 0.00 0.00 0.00 91 1017.8
20190324112310 65 186 0.0 0.0 0.00 0.00 0.00 91 1017.7
20190324111810 65 197 0.0 0.0 0.00 0.00 0.00 91 1017.6
20190324111311 65 195 0.0 0.0 0.00 0.00 0.00 91 1017.5
20190324110811 65 165 0.0 0.0 0.00 0.00 0.00 91 1017.5
20190324110311 65 157 0.0 0.0 0.00 0.00 0.00 91 1017.5
20190324105811 65 199 0.0 0.0 0.00 0.00 0.00 91 1017.5
20190324105311 65 186 0.0 0.0 0.00 0.00 0.00 91 1017.6
20190324104811 65 200 0.0 0.0 0.00 0.00 0.00 91 1017.5
20190324104311 65 200 0.0 0.0 0.00 0.00 0.00 91 1017.5
20190324103811 65 186 0.0 0.0 0.00 0.00 0.00 91 1017.5
20190324103311 65 186 0.0 0.0 0.00 0.00 0.00 91 1017.6
20190324102810 65 186 0.0 0.0 0.00 0.00 0.00 91 1017.6
20190324102310 65 181 0.0 0.0 0.00 0.00 0.00 91 1017.6
20190324101811 65 190 0.0 0.0 0.00 0.00 0.00 91 1017.6
20190324101311 65 201 0.0 0.0 0.00 0.00 0.00 91 1017.7
20190324100811 65 187 0.0 0.0 0.00 0.00 0.00 90 1017.8
20190324100311 65 189 0.0 0.0 0.00 0.00 0.00 90 1017.8
20190324095811 65 189 0.0 0.0 0.00 0.00 0.00 90 1017.8
20190324095310 65 198 0.0 0.0 0.00 0.00 0.00 90 1017.7
20190324094812 65 200 0.0 0.0 0.00 0.00 0.00 90 1017.7
20190324094311 66 181 0.0 0.0 0.00 0.00 0.00 90 1017.7
20190324093811 66 190 0.0 0.0 0.00 0.00 0.00 90 1017.7
20190324093310 66 207 0.0 0.0 0.00 0.00 0.00 89 1017.7
20190324092810 66 196 0.0 0.0 0.00 0.00 0.00 89 1017.7
20190324092311 66 187 0.0 0.0 0.00 0.00 0.00 89 1017.8
20190324091811 66 186 0.0 0.0 0.00 0.00 0.00 89 1017.7
20190324091310 66 190 0.0 0.0 0.00 0.00 0.00 89 1017.6
20190324090810 66 190 0.0 0.0 0.00 0.00 0.00 89 1017.6
20190324090310 66 190 0.0 0.0 0.00 0.00 0.00 89 1017.6
20190324085810 66 186 0.0 0.0 0.00 0.00 0.00 89 1017.6
20190324085311 66 186 0.0 0.0 0.00 0.00 0.00 89 1017.7
20190324084810 66 204 0.0 0.0 0.00 0.00 0.00 89 1017.7
20190324084310 66 177 0.0 0.0 0.00 0.00 0.00 89 1017.7
20190324083811 66 177 0.0 0.0 0.00 0.00 0.00 89 1017.8
20190324083311 66 159 0.0 0.0 0.00 0.00 0.00 89 1017.8
20190324082811 66 166 0.0 0.0 0.00 0.00 0.00 89 1017.8
20190324082310 66 184 0.0 0.0 0.00 0.00 0.00 89 1017.9
20190324081810 66 211 0.0 0.0 0.00 0.00 0.00 88 1017.9
20190324081310 66 163 0.0 8.0 0.00 0.00 0.00 88 1017.9
20190324080810 66 206 0.0 8.0 0.00 0.00 0.00 88 1017.9
20190324080310 66 199 1.0 8.0 0.00 0.00 0.00 88 1018.0
20190324075811 66 187 0.0 0.0 0.00 0.00 0.00 88 1017.9
20190324075310 66 189 0.0 0.0 0.00 0.00 0.00 88 1017.9
20190324074811 66 192 0.0 0.0 0.00 0.00 0.00 88 1017.9
20190324074310 66 183 0.0 0.0 0.00 0.00 0.00 88 1018.0
20190324073810 66 192 0.0 0.0 0.00 0.00 0.00 87 1018.0
20190324073311 66 176 0.0 0.0 0.00 0.00 0.00 87 1018.1
20190324072810 66 170 0.0 0.0 0.00 0.00 0.00 87 1018.1
20190324072310 66 172 0.0 14.0 0.00 0.00 0.00 87 1018.2
20190324071810 66 186 0.0 14.0 0.00 0.00 0.00 87 1018.2
20190324071311 66 237 0.0 0.0 0.00 0.00 0.00 87 1018.1
20190324070811 66 180 0.0 0.0 0.00 0.00 0.00 87 1018.1
20190324070310 66 173 0.0 5.0 0.00 0.00 0.00 87 1018.1
20190324065810 66 200 0.0 6.0 0.00 0.00 0.00 87 1018.1
20190324065311 66 193 2.0 6.0 0.00 0.00 0.00 87 1018.2
20190324064811 66 155 0.0 0.0 0.00 0.00 0.00 87 1018.2
20190324064310 66 196 0.0 0.0 0.00 0.00 0.00 87 1018.3
20190324063810 66 147 0.0 0.0 0.00 0.00 0.00 87 1018.4
20190324063310 66 147 0.0 0.0 0.00 0.00 0.00 87 1018.4
20190324062810 66 192 0.0 5.0 0.00 0.00 0.00 87 1018.4
20190324062310 66 204 0.0 8.0 0.00 0.00 0.00 87 1018.4
20190324061810 66 196 2.0 8.0 0.00 0.00 0.00 87 1018.4
20190324061310 66 176 0.0 1.0 0.00 0.00 0.00 87 1018.4
20190324060810 66 188 0.0 1.0 0.00 0.00 0.00 87 1018.3
20190324060310 66 193 0.0 5.0 0.00 0.00 0.00 87 1018.2
20190324055810 66 190 0.0 5.0 0.00 0.00 0.00 87 1018.2
20190324055311 66 180 0.0 5.0 0.00 0.00 0.00 87 1018.2
20190324054811 66 184 0.0 5.0 0.00 0.00 0.00 86 1018.2
20190324054310 66 183 1.0 12.0 0.00 0.00 0.00 86 1018.2
20190324053810 66 200 2.0 12.0 0.00 0.00 0.00 86 1018.1
20190324053310 66 171 0.0 7.0 0.00 0.00 0.00 86 1018.1
20190324052810 66 178 0.0 22.0 0.00 0.00 0.00 86 1018.0
20190324052310 66 166 7.0 22.0 0.00 0.00 0.00 86 1018.0
20190324051810 66 200 0.0 0.0 0.00 0.00 0.00 85 1017.9
20190324051310 66 201 0.0 0.0 0.00 0.00 0.00 85 1017.9
20190324050810 67 189 0.0 0.0 0.00 0.00 0.00 85 1018.0
20190324050310 67 183 0.0 12.0 0.00 0.00 0.00 85 1017.9
20190324045809 67 172 2.0 12.0 0.00 0.00 0.00 85 1017.9
20190324045310 67 167 0.0 5.0 0.00 0.00 0.00 84 1018.0
20190324044810 67 185 0.0 9.0 0.00 0.00 0.00 84 1018.0
20190324044310 67 209 0.0 17.0 0.00 0.00 0.00 84 1018.0
20190324043810 67 183 6.0 17.0 0.00 0.00 0.00 84 1018.1
20190324043310 67 177 0.0 0.0 0.00 0.00 0.00 83 1018.1
20190324042810 67 160 0.0 0.0 0.00 0.00 0.00 83 1018.2
20190324042310 68 188 0.0 0.0 0.00 0.00 0.00 83 1018.2
20190324041810 68 187 0.0 0.0 0.00 0.00 0.00 82 1018.2
20190324041310 68 169 0.0 0.0 0.00 0.00 0.00 82 1018.1
20190324040810 68 170 0.0 0.0 0.00 0.00 0.00 82 1018.1
20190324040310 68 179 0.0 0.0 0.00 0.00 0.00 82 1018.1
20190324035810 68 198 0.0 0.0 0.00 0.00 0.00 81 1018.2
20190324035310 68 184 0.0 0.0 0.00 0.00 0.00 81 1018.2
20190324034810 68 212 0.0 0.0 0.00 0.00 0.00 81 1018.3
20190324034310 68 190 0.0 0.0 0.00 0.00 0.00 80 1018.3
20190324033810 69 165 0.0 0.0 0.00 0.00 0.00 80 1018.3
20190324033310 69 188 0.0 12.0 0.00 0.00 0.00 80 1018.2
20190324032810 69 200 1.0 12.0 0.00 0.00 0.00 79 1018.1
20190324032309 69 182 0.0 12.0 0.00 0.00 0.00 79 1018.1
20190324031810 69 177 0.0 12.0 0.00 0.00 0.00 79 1017.9
20190324031310 69 160 1.0 12.0 0.00 0.00 0.00 79 1017.8
20190324030810 69 180 0.0 15.0 0.00 0.00 0.00 78 1017.9
20190324030309 69 171 3.0 15.0 0.00 0.00 0.00 78 1017.9
20190324025810 69 248 0.0 7.0 0.00 0.00 0.00 78 1017.8
20190324025310 69 168 0.0 1.0 0.00 0.00 0.00 78 1017.8
20190324024810 69 178 0.0 1.0 0.00 0.00 0.00 78 1017.9
20190324024309 69 160 0.0 0.0 0.00 0.00 0.00 77 1017.8
20190324023809 69 160 0.0 0.0 0.00 0.00 0.00 77 1017.8
20190324023310 69 196 0.0 0.0 0.00 0.00 0.00 77 1017.8
20190324022810 69 193 0.0 0.0 0.00 0.00 0.00 77 1017.8
20190324022310 69 187 0.0 0.0 0.00 0.00 0.00 76 1017.8
20190324021810 69 189 0.0 0.0 0.00 0.00 0.00 76 1017.9
20190324021310 70 210 0.0 2.0 0.00 0.00 0.00 75 1018.0
20190324020810 70 190 0.0 2.0 0.00 0.00 0.00 75 1017.9
20190324020310 70 190 0.0 7.0 0.00 0.00 0.00 75 1017.9
20190324015810 70 167 0.0 7.0 0.00 0.00 0.00 74 1017.8
20190324015310 70 197 1.0 8.0 0.00 0.00 0.00 74 1017.8
20190324014810 70 180 1.0 8.0 0.00 0.00 0.00 74 1017.7
20190324014310 70 183 0.0 0.0 0.00 0.00 0.00 75 1017.7
20190324013810 70 186 0.0 13.0 0.00 0.00 0.00 74 1017.7
20190324013310 71 198 0.0 13.0 0.00 0.00 0.00 73 1017.6
20190324012810 71 193 0.0 15.0 0.00 0.00 0.00 73 1017.6
20190324012310 71 187 1.0 15.0 0.00 0.00 0.00 73 1017.6
20190324011810 71 192 0.0 6.0 0.00 0.00 0.00 73 1017.5
20190324011310 71 181 1.0 6.0 0.00 0.00 0.00 73 1017.3
20190324010810 71 174 0.0 5.0 0.00 0.00 0.00 73 1017.2
20190324010310 71 173 0.0 5.0 0.00 0.00 0.00 72 1017.1
20190324005810 71 196 0.0 15.0 0.00 0.00 0.00 73 1017.0
20190324005309 71 192 0.0 15.0 0.00 0.00 0.00 73 1016.9
20190324004810 71 188 1.0 14.0 0.00 0.00 0.00 72 1016.9
20190324004310 71 190 0.0 8.0 0.00 0.00 0.00 72 1016.8
20190324003309 71 185 1.0 8.0 0.00 0.00 0.00 73 1016.7
20190324002810 71 187 0.0 2.0 0.00 0.00 0.00 73 1016.7
20190324002310 71 198 0.0 8.0 0.00 0.00 0.00 73 1016.8
20190324001810 71 179 0.0 8.0 0.00 0.00 0.00 72 1016.8
20190324001310 71 183 0.0 5.0 0.00 0.00 0.00 72 1016.8
20190324000809 72 195 0.0 12.0 0.00 0.00 0.00 72 1016.8
20190324000309 72 165 1.0 12.0 0.00 0.00 0.00 71 1016.8
20190323235809 72 198 0.0 1.0 0.00 0.00 0.00 70 1016.8
20190323235309 72 190 0.0 2.0 0.00 0.00 0.00 70 1016.7
20190323234811 72 187 1.0 2.0 0.00 0.00 0.00 69 1016.7
20190323234309 72 189 0.0 1.0 0.00 0.00 0.00 69 1016.6
20190323233810 72 204 0.0 1.0 0.00 0.00 0.00 69 1016.5
20190323233310 73 176 0.0 1.0 0.00 0.00 0.00 69 1016.5
20190323232810 73 193 0.0 1.0 0.00 0.00 0.00 69 1016.5
20190323232310 73 175 0.0 5.0 0.00 0.00 0.00 68 1016.5
20190323231810 73 158 0.0 5.0 0.00 0.00 0.00 69 1016.3
20190323231310 73 179 0.0 0.0 0.00 0.00 0.00 68 1016.3
20190323230810 73 186 0.0 0.0 0.00 0.00 0.00 68 1016.2
20190323230309 73 180 0.0 0.0 0.00 0.00 0.00 68 1016.1
20190323225809 73 191 0.0 0.0 0.00 0.00 0.00 68 1016.1
20190323225310 73 176 0.0 0.0 0.00 0.00 0.00 68 1016.1
20190323224810 73 180 0.0 0.0 0.00 0.00 0.00 68 1016.1
20190323224310 73 170 0.0 0.0 0.00 0.00 0.00 68 1016.2
20190323223810 73 183 0.0 0.0 0.00 0.00 0.00 68 1016.3
20190323223310 73 179 0.0 0.0 0.00 0.00 0.00 68 1016.4
20190323222809 73 122 0.0 0.0 0.00 0.00 0.00 67 1016.4
20190323222309 74 199 0.0 1.0 0.00 0.00 0.00 67 1016.4
20190323221810 74 157 0.0 1.0 0.00 0.00 0.00 67 1016.3
20190323221310 74 122 0.0 8.0 0.00 0.00 0.00 68 1016.3
20190323220809 73 155 0.0 8.0 0.00 0.00 0.00 69 1016.4
20190323220309 73 181 1.0 8.0 0.00 0.00 0.00 69 1016.5
20190323215810 73 173 0.0 0.0 0.00 0.00 0.00 70 1016.5
20190323215309 73 178 0.0 0.0 0.00 0.00 0.00 70 1016.6
20190323214810 72 186 0.0 0.0 0.00 0.00 0.00 71 1016.7
20190323214310 72 179 0.0 0.0 0.00 0.00 0.00 73 1016.7
20190323213810 72 188 0.0 0.0 0.00 0.00 0.00 74 1016.7
20190323213310 71 148 0.0 0.0 0.00 0.00 0.00 75 1016.7
20190323212809 71 175 0.0 0.0 0.00 0.00 0.00 76 1016.8
20190323212309 71 191 0.0 0.0 0.00 0.00 0.00 76 1016.8
20190323211810 70 183 0.0 0.0 0.00 0.00 0.00 76 1016.9
20190323211310 70 184 0.0 0.0 0.00 0.00 0.00 76 1017.0
20190323210810 70 194 0.0 0.0 0.00 0.00 0.00 76 1017.0
20190323210310 70 186 0.0 0.0 0.00 0.00 0.00 77 1017.1
20190323205809 70 190 0.0 0.0 0.00 0.00 0.00 77 1017.2
20190323205309 70 186 0.0 0.0 0.00 0.00 0.00 76 1017.2
20190323204810 71 189 0.0 0.0 0.00 0.00 0.00 75 1017.3
20190323204309 71 185 0.0 0.0 0.00 0.00 0.00 73 1017.3
20190323203810 71 159 0.0 0.0 0.00 0.00 0.00 72 1017.3
20190323203309 71 179 0.0 0.0 0.00 0.00 0.00 72 1017.4
20190323202809 71 174 0.0 0.0 0.00 0.00 0.00 72 1017.5
20190323202309 71 181 0.0 0.0 0.00 0.00 0.00 72 1017.6
20190323201809 71 143 0.0 0.0 0.00 0.00 0.00 72 1017.6
20190323201309 71 177 0.0 0.0 0.00 0.00 0.00 72 1017.7
20190323200809 71 195 0.0 0.0 0.00 0.00 0.00 72 1017.7
20190323200310 72 187 0.0 0.0 0.00 0.00 0.00 72 1017.7
20190323195809 72 175 0.0 0.0 0.00 0.00 0.00 71 1017.7
20190323195309 72 151 0.0 0.0 0.00 0.00 0.00 71 1017.6
20190323194809 72 192 0.0 14.0 0.00 0.00 0.00 70 1017.7
20190323194310 72 186 0.0 14.0 0.00 0.00 0.00 70 1017.6
20190323193810 72 180 0.0 2.0 0.00 0.00 0.00 70 1017.6
20190323193309 72 184 1.0 6.0 0.00 0.00 0.00 70 1017.6
20190323192810 72 176 0.0 7.0 0.00 0.00 0.00 70 1017.7
20190323192310 72 181 0.0 9.0 0.00 0.00 0.00 70 1017.7
20190323191810 72 195 2.0 9.0 0.00 0.00 0.00 69 1017.8
20190323191309 72 188 1.0 15.0 0.00 0.00 0.00 69 1017.9
20190323190810 72 192 0.0 15.0 0.00 0.00 0.00 69 1017.9
20190323190309 72 170 2.0 12.0 0.00 0.00 0.00 69 1017.9
20190323185810 72 183 0.0 14.0 0.00 0.00 0.00 70 1018.0
20190323185310 72 169 1.0 14.0 0.00 0.00 0.00 70 1018.1
20190323184810 72 188 0.0 15.0 0.00 0.00 0.00 70 1018.1
20190323184310 72 185 3.0 15.0 0.00 0.00 0.00 69 1018.3
20190323183809 72 182 0.0 5.0 0.00 0.00 0.00 69 1018.3
20190323183310 72 179 0.0 6.0 0.00 0.00 0.00 69 1018.4
20190323182810 72 134 0.0 17.0 0.00 0.00 0.00 71 1018.3
20190323182310 72 160 0.0 17.0 0.00 0.00 0.00 71 1018.4
20190323181810 72 175 2.0 17.0 0.00 0.00 0.00 70 1018.4
20190323181309 73 190 0.0 6.0 0.00 0.00 0.00 70 1018.6
20190323180810 73 181 0.0 6.0 0.00 0.00 0.00 70 1018.7
20190323180310 72 169 0.0 5.0 0.00 0.00 0.00 71 1018.7
20190323175809 72 191 0.0 8.0 0.00 0.00 0.00 72 1018.7
20190323175309 71 201 0.0 8.0 0.00 0.00 0.00 73 1018.8
20190323174809 71 183 0.0 8.0 0.00 0.00 0.00 73 1018.9
20190323174310 70 201 1.0 6.0 0.00 0.00 0.00 75 1018.9
20190323173810 70 196 0.0 0.0 0.00 0.00 0.00 76 1019.0
20190323173309 70 171 0.0 0.0 0.00 0.00 0.00 76 1019.1
20190323172809 70 182 0.0 0.0 0.00 0.00 0.00 77 1019.0
20190323172309 69 202 0.0 9.0 0.00 0.00 0.00 77 1019.0
20190323171809 69 215 1.0 9.0 0.00 0.00 0.00 77 1019.0
20190323171309 69 184 0.0 0.0 0.00 0.00 0.00 77 1019.0
20190323170809 69 174 0.0 0.0 0.00 0.00 0.00 77 1019.1